TimeEDT,TemperatureF,Dew PointF,Humidity,Sea Level PressureIn,VisibilityMPH,Wind Direction,Wind SpeedMPH,Gust SpeedMPH,PrecipitationIn,Events,Conditions,WindDirDegrees,DateUTC
12:53 AM,36.0,32.0,86,30.10,10.0,Calm,Calm,-,N/A,,Clear,0,2013-10-28 04:53:00
1:53 AM,37.0,30.9,79,30.11,10.0,Calm,Calm,-,N/A,,Clear,0,2013-10-28 05:53:00
2:53 AM,34.0,30.9,89,30.12,10.0,Calm,Calm,-,N/A,,Clear,0,2013-10-28 06:53:00
3:53 AM,36.0,32.0,86,30.13,10.0,Calm,Calm,-,N/A,,Clear,0,2013-10-28 07:53:00
4:53 AM,32.0,28.9,88,30.14,10.0,Calm,Calm,-,N/A,,Clear,0,2013-10-28 08:53:00
5:53 AM,32.0,28.9,88,30.17,10.0,NE,4.6,-,N/A,,Clear,50,2013-10-28 09:53:00
6:53 AM,30.9,28.0,89,30.18,9.0,ENE,6.9,-,N/A,,Clear,60,2013-10-28 10:53:00
7:53 AM,30.9,28.9,92,30.19,9.0,ENE,4.6,-,N/A,,Clear,60,2013-10-28 11:53:00
8:53 AM,35.1,30.9,85,30.22,8.0,ENE,5.8,-,N/A,,Clear,60,2013-10-28 12:53:00
9:53 AM,46.9,37.9,71,30.23,10.0,ENE,3.5,-,N/A,,Clear,60,2013-10-28 13:53:00
10:53 AM,53.1,34.0,48,30.24,10.0,East,5.8,-,N/A,,Clear,100,2013-10-28 14:53:00
11:53 AM,55.0,34.0,45,30.25,10.0,Variable,5.8,-,N/A,,Clear,0,2013-10-28 15:53:00
12:53 PM,55.9,34.0,44,30.25,10.0,Variable,3.5,-,N/A,,Clear,0,2013-10-28 16:53:00
1:53 PM,57.9,36.0,44,30.23,10.0,SSE,4.6,-,N/A,,Clear,160,2013-10-28 17:53:00
2:53 PM,61.0,34.0,36,30.22,10.0,Calm,Calm,-,N/A,,Clear,0,2013-10-28 18:53:00
3:53 PM,61.0,34.0,36,30.21,10.0,Calm,Calm,-,N/A,,Clear,0,2013-10-28 19:53:00
4:53 PM,60.1,33.1,36,30.22,10.0,Calm,Calm,-,N/A,,Clear,0,2013-10-28 20:53:00
5:53 PM,60.1,34.0,38,30.23,10.0,NNW,5.8,-,N/A,,Clear,340,2013-10-28 21:53:00
6:53 PM,54.0,33.1,45,30.25,10.0,North,4.6,-,N/A,,Clear,10,2013-10-28 22:53:00
7:53 PM,48.9,34.0,56,30.27,10.0,NNE,5.8,-,N/A,,Clear,20,2013-10-28 23:53:00
8:53 PM,48.9,34.0,56,30.28,10.0,NNE,5.8,-,N/A,,Clear,30,2013-10-29 00:53:00
9:53 PM,45.0,33.1,63,30.28,10.0,NE,5.8,-,N/A,,Clear,40,2013-10-29 01:53:00
10:53 PM,42.1,33.1,70,30.29,10.0,NE,6.9,-,N/A,,Clear,50,2013-10-29 02:53:00
11:53 PM,44.1,32.0,63,30.31,10.0,NE,6.9,-,N/A,,Clear,50,2013-10-29 03:53:00